Location: Oberkirch
(48.5323°N, 8.0787°E)
Time: 17:04:21
(UTC+00:00)

ADEOS Rocket - Pass Details

Date: 08 November 2025
Orbit: 859 x 1304 km, 98.7° (Epoch: 09 December)

Event Time Altitude Azimuth Distance (km) Brightness Sun altitude
Rises 04:16:55 0° 8° (N) 3,738 6.1 -21.3°
Reaches altitude 10° 04:19:34 10° 358° (N) 2,847 5.4 -20.9°
Maximum altitude 04:25:05 31° 299° (WNW) 1,829 3.9 -20.0°
Enters shadow 04:25:41 31° 290° (WNW) 1,855 3.9 -19.9°
